Location: The Saddle
(36.8333°N, 80.3417°W)
Time: 07:47:02
(UTC-04:00)

Explorer 7 - All Passes

Search period start: 08 July 2025 00:00
Search period end: 18 July 2025 00:00
Orbit: 444 x 570 km, 50.3° (Epoch: 07 July)

Date Brightness Start Highest point End Pass type
(mag) Time Alt. Az. Time Alt. Az. Time Alt. Az.
08 Jul - 06:12:18 10° SE 06:13:19 11° SE 06:14:20 10° ESE daylight
08 Jul - 07:47:27 10° SW 07:51:42 82° SE 07:55:50 10° NE daylight
08 Jul - 09:27:42 10° WNW 09:30:58 22° NNW 09:34:09 10° NNE daylight
08 Jul - 11:09:34 10° NNW 11:11:02 12° N 11:12:29 10° NNE daylight
08 Jul - 12:48:39 10° NNW 12:51:14 17° NNE 12:53:44 10° ENE daylight
08 Jul - 14:26:54 10° NW 14:30:41 68° NE 14:34:19 10° ESE daylight
08 Jul - 16:07:19 10° W 16:09:04 13° SW 16:10:47 10° SSW daylight
09 Jul - 05:52:18 10° SSE 05:53:51 12° SE 05:55:23 10° ESE daylight
09 Jul - 07:28:00 10° SW 07:32:15 87° SE 07:36:24 10° NE daylight
09 Jul - 09:08:20 10° WNW 09:11:34 21° NNW 09:14:43 10° NNE daylight
09 Jul - 10:50:10 10° NNW 10:51:40 12° N 10:53:08 10° NNE daylight
09 Jul - 12:29:09 10° NNW 12:31:50 17° NNE 12:34:26 10° ENE daylight
09 Jul - 14:07:27 10° NW 14:11:16 73° NE 14:14:55 10° ESE daylight
09 Jul - 15:48:08 10° WSW 15:49:37 12° SW 15:51:03 10° SSW daylight
10 Jul - 05:32:27 10° SSE 05:34:21 13° SE 05:36:16 10° E visible
10 Jul - 07:08:32 10° SW 07:12:47 87° NW 07:16:58 10° NE daylight
10 Jul - 08:48:58 10° WNW 08:52:09 20° NNW 08:55:15 10° NNE daylight
10 Jul - 10:30:43 10° NNW 10:32:16 12° N 10:33:47 10° NNE daylight
10 Jul - 12:09:39 10° NNW 12:12:26 18° NNE 12:15:08 10° ENE daylight
10 Jul - 13:47:58 10° NW 13:51:49 79° NE 13:55:30 10° SE daylight
10 Jul - 15:29:01 10° WSW 15:30:08 11° SW 15:31:14 10° SW daylight
11 Jul - 05:12:39 10° SSE 05:14:51 14° SE 05:17:04 10° E visible
11 Jul - 06:49:04 10° SW 06:53:20 82° NW 06:57:30 10° NE daylight
11 Jul - 08:29:34 10° WNW 08:32:43 20° NNW 08:35:47 10° NNE daylight
11 Jul - 10:11:16 10° NNW 10:12:51 12° N 10:14:25 10° NNE daylight
11 Jul - 11:50:07 10° NNW 11:53:00 19° NNE 11:55:48 10° ENE daylight
11 Jul - 13:28:29 10° NW 13:32:22 85° NE 13:36:04 10° SE daylight
11 Jul - 15:10:08 10° WSW 15:10:38 10° SW 15:11:08 10° SW daylight
12 Jul - 04:52:54 10° SSE 04:55:21 15° SE 04:57:47 10° E visible
12 Jul - 06:29:34 10° SW 06:33:50 77° NW 06:38:02 10° NE daylight
12 Jul - 08:10:10 10° WNW 08:13:16 19° NNW 08:16:18 10° NNE daylight
12 Jul - 09:51:47 10° NNW 09:53:25 12° N 09:55:02 10° NNE daylight
12 Jul - 11:30:35 10° NNW 11:33:34 20° NNE 11:36:27 10° ENE daylight
12 Jul - 13:08:59 10° NW 13:12:54 89° SW 13:16:37 10° SE daylight
13 Jul - 04:33:09 10° SSE 04:35:49 16° SE 04:38:28 10° E visible
13 Jul - 06:10:04 10° WSW 06:14:20 72° NW 06:18:32 10° NE daylight
13 Jul - 07:50:45 10° WNW 07:53:48 19° NNW 07:56:47 10° NNE daylight
13 Jul - 09:32:18 10° NNW 09:33:59 12° N 09:35:38 10° NNE daylight
13 Jul - 11:11:02 10° NNW 11:14:07 20° NNE 11:17:04 10° ENE daylight
13 Jul - 12:49:29 10° NW 12:53:24 83° SW 12:57:08 10° SE daylight
14 Jul - 04:13:25 10° S 04:16:16 17° SE 04:19:06 10° E visible
14 Jul - 05:50:34 10° WSW 05:54:49 67° NW 05:59:01 10° NE daylight
14 Jul - 07:31:19 10° WNW 07:34:19 18° NNW 07:37:16 10° NNE daylight
14 Jul - 09:12:46 10° NNW 09:14:31 12° N 09:16:14 10° NNE daylight
14 Jul - 10:51:28 10° NNW 10:54:38 21° NNE 10:57:41 10° ENE daylight
14 Jul - 12:29:57 10° NW 12:33:54 77° SW 12:37:38 10° SE daylight
15 Jul - 03:53:42 10° S 03:56:42 19° SE 03:59:42 10° E visible
15 Jul - 05:31:02 10° WSW 05:35:17 63° NW 05:39:29 10° NE visible
15 Jul - 07:11:52 10° WNW 07:14:49 18° NNW 07:17:44 10° NNE daylight
15 Jul - 08:53:15 10° NNW 08:55:03 12° N 08:56:49 10° NNE daylight
15 Jul - 10:31:53 10° NNW 10:35:08 22° NNE 10:38:16 10° ENE daylight
15 Jul - 12:10:25 10° NW 12:14:21 71° SW 12:18:07 10° SE daylight
16 Jul - 03:33:59 10° S 03:37:07 20° SE 03:40:16 10° E visible
16 Jul - 05:11:30 10° WSW 05:15:44 59° NW 05:19:55 10° NE visible
16 Jul - 06:52:24 10° WNW 06:55:18 18° NNW 06:58:10 10° NNE daylight
16 Jul - 08:33:41 10° NNW 08:35:32 13° N 08:37:22 10° NNE daylight
16 Jul - 10:12:17 10° NNW 10:15:37 23° NNE 10:18:50 10° ENE daylight
16 Jul - 11:50:51 10° WNW 11:54:48 66° SW 11:58:34 10° SE daylight
17 Jul - 03:14:16 10° S 03:17:32 21° SE 03:20:48 10° E visible
17 Jul - 04:51:58 10° WSW 04:56:10 56° NW 05:00:21 10° NE visible
17 Jul - 06:32:55 10° WNW 06:35:47 17° NNW 06:38:36 10° NNE daylight
17 Jul - 08:14:06 10° NNW 08:16:02 13° N 08:17:55 10° NNE daylight
17 Jul - 09:52:41 10° NNW 09:56:05 25° NNE 09:59:23 10° E daylight
17 Jul - 11:31:17 10° WNW 11:35:15 61° SW 11:39:01 10° SE daylight
